Погода в Мексико

США     39°10′13″N   91°52′57″W
темп.,
°C
ветер,
м/с
пор.,
м/с
влажн.,
%
обл.,
%
осадки,
мм/ч
давл.,
гПа
погр.,
м
15 мая, сб
сб1501:00+10ю5117770 0.0 1022168
04:00+12ююв3880100 0.8 1021167
07:00+11юв4987100 1.0 1021233
10:00+13ю41183100 0.1 1021343
13:00+15ю3880100 0.1 1020470
16:00+16ююз5784100 0.1 1019675
19:00+15ю588497 0.1 1018498
22:00+13ююв378793 0.0 1019254
16 мая, вс
вс1601:00+13ююв259195 0.0 1019158
04:00+13юв2293100 0.0 101959
07:00+13вюв3596100 0.0 1019175
10:00+17юв3590100 2.0 1020553
13:00+17ююв2495100 5.4 1018379
16:00+18юв3695100 0.7 1016293
19:00+19вюв2488100 4.5 101593
22:00+17всв3497100 8.7 101669
17 мая, пн
пн1701:00+15вюв2299100 13.9 101662
04:00+15ююв2399100 2.9 101692
07:00+15в3797100 3.8 1015205
10:00+16вюв61197100 7.9 1015599
13:00+16вюв51198100 20.4 1014554
16:00+16вюв4898100 1.6 1013362
19:00+16в4699100 4.7 1013236
22:00+16в2599100 0.1 1014214
18 мая, вт
вт1801:00+16юв229998 0.1 101489
04:00+16юв259999 0.1 1013167
07:00+17ююв3799100 0.8 1014269
10:00+19ююв4996100 0.3 1015511
13:00+20ю6888100 0.3 1015883
16:00+23ю4678100 0.2 10141045
19:00+21ю4688100 1.1 1014135
22:00+18ююв5129463 1.8 1015307
19 мая, ср
ср1901:00+18ююв61497100 1.9 1015563
04:00+16юв51395100 0.0 1015493
07:00+16юв61496100 0.0 1016498
10:00+20ююв81488100 0.1 1016895
13:00+22ю6982100 0.4 10171047
16:00+20ююз5129291 1.4 1017805
19:00+20ю6149086 2.6 1017698
22:00+19ю6169262 0.3 1018637